Regional Weather Roundup
Issued by NWS

Home | Current Version | Previous Version | Text Only | Print | Product List | Glossary Off
Versions: 1 2 3 4 5 6 7 8 9 10 11 12 13 14 15 16 17 18 19 20 21 22 23 24 25 26 27 28 29 30 31 32 33 34 35 36 37 38 39 40 41 42 43 44 45 46 47 48 49 50

664
ASUS44 KLIX 010110
RWRLA
LOUISIANA WEATHER ROUNDUP
NATIONAL WEATHER SERVICE NEW ORLEANS LA
800 PM CDT SUN AUG 31 2014

NOTE: "FAIR" INDICATES FEW OR NO CLOUDS BELOW 12,000 FEET WITH NO
      SIGNIFICANT WEATHER AND/OR OBSTRUCTIONS TO VISIBILITY.
      SKY/WX - SKY CONDITION AND SIGNIFICANT WEATHER.
      TMP - AIR TEMPERATURE.    DP   - DEWPOINT TEMPERATURE.
      RH  - RELATIVE HUMIDITY.  PRES - PRESSURE.
      HX  - HEAT INDEX.         WCI  - WIND CHILL INDEX.

*  THESE STATIONS ARE NOT NWS OR FAA STATIONS AND ARE NOT UNDER
   NWS QUALITY CONTROL.

LAZ040-048-061>063-065-066-069-010200-
SOUTHEAST LOUISIANA

CITY           SKY/WX    TMP DP  RH WIND       PRES   REMARKS
N.O. AUDUBON     N/A     86  75  69 MISG        N/A  HX  95
N.O. INTL ARPT MOCLDY    84  74  71 S6        30.03S
N.O. LAKEFRONT PTCLDY    85  77  77 SE10      30.04R HX  95
N.O. DOWNTOWN* FAIR      86  73  66 SE3       30.04S
SLIDELL        PTCLDY    82  76  81 CALM      30.04S
BATON ROUGE    MOCLDY    83  74  74 SE7       30.02S
BOOTHVILLE     CLEAR     84  76  76 SE6       30.05S
BELLE CHASSE   PTCLDY    85  73  67 SE7       30.03S
BOGALUSA*      FAIR      84  72  67 SE6       30.06S
GALLIANO*      NOT AVBL
NEW ROADS*     FAIR      83  74  73 S5        30.01S
GONZALES*      FAIR      84  77  79 CALM      30.02S
HAMMOND*       PTCLDY    84  73  70 E5        30.05S
HOUMA*         PTCLDY    81  74  79 CALM      30.03S
PORT FOURCHON* NOT AVBL

$$

LAZ041-044-053-054-010200-
SOUTHWEST LOUISIANA

CITY           SKY/WX    TMP DP  RH WIND       PRES   REMARKS
LAKE CHARLES   MOCLDY    80  72  76 SE9       29.98S
LAFAYETTE      MOCLDY    83  75  77 VRB3      30.01S
PATTERSON        N/A     81  77  89 CALM      30.06S
SALT POINT       N/A     87  78  74 SE7       30.01S HX 100
NEW IBERIA     MOCLDY    83  76  79 S6        30.02S
CHENAULT AIRPK MOCLDY    81  72  74 SE8       29.99S

$$

LAZ027-028-010200-
CENTRAL LOUISIANA

CITY           SKY/WX    TMP DP  RH WIND       PRES   REMARKS
FORT POLK      CLOUDY    76  75  97 CALM      30.00S
ALEXANDRIA INT CLOUDY    76  73  91 SE6       29.99S
ALEXANDRIA     CLOUDY    78  74  87 CALM      30.00F

$$

LAZ001-002-010200-
NORTHWEST LOUISIANA

CITY           SKY/WX    TMP DP  RH WIND       PRES   REMARKS
SHREVEPORT     MOCLDY    81  70  69 S7        29.96F
BARKSDALE AFB  MOCLDY    82  70  66 S8        29.96F
DTN SHREVEPORT MOCLDY    82  69  64 S10       29.96S

$$

LAZ014-016-010200-
NORTHEAST LOUISIANA

CITY           SKY/WX    TMP DP  RH WIND       PRES   REMARKS
MONROE         CLOUDY    79  69  71 S3        30.01S
TALLULAH       MOCLDY    79  76  90 CALM      30.02S

$$




USA.gov is the U.S. government's official web portal to all federal, state and local government web resources and services.